| time (UTC) | temp F | wind direction | speed knots | gust knots | rain 1hr in | rain 24hr in | rain mn in | humidity % | barometer mb |
| 20260506140001 | 68 | 176 | 3.5 | 3.5 | 0.00 | 0.00 | 0.00 | 61 | 996.6 |
| 20260506134501 | 68 | 152 | 1.7 | 4.3 | 0.00 | 0.00 | 0.00 | 61 | 996.6 |
| 20260506133001 | 68 | 195 | 5.2 | 5.2 | 0.00 | 0.00 | 0.00 | 62 | 996.6 |
| 20260506131502 | 66 | 219 | 2.6 | 4.3 | 0.00 | 0.00 | 0.00 | 62 | 996.6 |
| 20260506130001 | 66 | 166 | 2.6 | 5.2 | 0.00 | 0.00 | 0.00 | 63 | 996.6 |
| 20260506124501 | 68 | 186 | 1.7 | 2.6 | 0.00 | 0.00 | 0.00 | 61 | 996.6 |
| 20260506123002 | 66 | 160 | 6.1 | 9.6 | 0.00 | 0.00 | 0.00 | 62 | 996.9 |
| 20260506121500 | 66 | 192 | 3.5 | 5.2 | 0.00 | 0.00 | 0.00 | 61 | 996.6 |
| 20260506120001 | 68 | 201 | 4.3 | 7.0 | 0.00 | 0.00 | 0.00 | 59 | 996.9 |
| 20260506114502 | 66 | 245 | 4.3 | 7.0 | 0.00 | 0.00 | 0.00 | 63 | 996.6 |
| 20260506113001 | 66 | 188 | 2.6 | 7.0 | 0.00 | 0.00 | 0.00 | 63 | 996.6 |
| 20260506111502 | 66 | 208 | 3.5 | 11.3 | 0.00 | 0.00 | 0.00 | 61 | 996.2 |
| 20260506110001 | 68 | 223 | 8.7 | 11.3 | 0.00 | 0.00 | 0.00 | 61 | 996.2 |
| 20260506104502 | 68 | 214 | 2.6 | 5.2 | 0.00 | 0.00 | 0.00 | 62 | 996.2 |
| 20260506103001 | 66 | 154 | 5.2 | 7.8 | 0.00 | 0.00 | 0.00 | 61 | 996.2 |
| 20260506101502 | 68 | 196 | 2.6 | 5.2 | 0.00 | 0.00 | 0.00 | 61 | 995.6 |
| 20260506100003 | 66 | 201 | 5.2 | 6.1 | 0.00 | 0.00 | 0.00 | 61 | 995.6 |
| 20260506094501 | 66 | 170 | 0.9 | 1.7 | 0.00 | 0.00 | 0.00 | 61 | 995.6 |
| 20260506093001 | 64 | 251 | 3.5 | 3.5 | 0.00 | 0.00 | 0.00 | 62 | 995.6 |
| 20260506091502 | 64 | 185 | 2.6 | 2.6 | 0.00 | 0.00 | 0.00 | 63 | 995.6 |
| 20260506090002 | 62 | 166 | 2.6 | 2.6 | 0.00 | 0.00 | 0.00 | 66 | 995.6 |
| 20260506084502 | 62 | 138 | 1.7 | 2.6 | 0.00 | 0.00 | 0.00 | 67 | 995.2 |
| 20260506083002 | 62 | 189 | 1.7 | 1.7 | 0.00 | 0.00 | 0.00 | 63 | 995.2 |
| 20260506081501 | 62 | 199 | 3.5 | 3.5 | 0.00 | 0.00 | 0.00 | 65 | 995.2 |
| 20260506073001 | 62 | 108 | 0.0 | 0.0 | 0.00 | 0.00 | 0.00 | 65 | 995.2 |
| 20260506071501 | 62 | 167 | 0.9 | 1.7 | 0.00 | 0.00 | 0.00 | 66 | 994.9 |
| 20260506061501 | 57 | 69 | 0.9 | 0.9 | 0.00 | 0.00 | 0.00 | 78 | 995.6 |
| 20260506044501 | 51 | 83 | 2.6 | 3.5 | 0.00 | 0.00 | 0.00 | 90 | 996.2 |
| 20260506043002 | 51 | 89 | 2.6 | 3.5 | 0.00 | 0.00 | 0.00 | 92 | 996.6 |
| 20260506041503 | 50 | 49 | 0.9 | 0.9 | 0.00 | 0.00 | 0.00 | 94 | 996.9 |
| 20260506040004 | 50 | 89 | 1.7 | 3.5 | 0.00 | 0.00 | 0.00 | 96 | 997.2 |
| 20260506034502 | 50 | 90 | 1.7 | 1.7 | 0.00 | 0.00 | 0.00 | 96 | 997.2 |
| 20260506033002 | 50 | 70 | 0.9 | 1.7 | 0.00 | 0.00 | 0.00 | 97 | 997.2 |
| 20260506031501 | 50 | 81 | 0.9 | 0.9 | 0.00 | 0.00 | 0.00 | 97 | 997.2 |
| 20260506030001 | 50 | 75 | 0.9 | 1.7 | 0.00 | 0.00 | 0.00 | 97 | 997.2 |
| 20260506024501 | 50 | 81 | 0.9 | 1.7 | 0.00 | 0.00 | 0.00 | 96 | 997.2 |
| 20260506023002 | 50 | 91 | 0.0 | 0.0 | 0.00 | 0.00 | 0.00 | 96 | 997.2 |
| 20260506021502 | 50 | 78 | 1.7 | 1.7 | 0.00 | 0.00 | 0.00 | 95 | 997.2 |
| 20260506020001 | 50 | 82 | 1.7 | 1.7 | 0.00 | 0.00 | 0.00 | 95 | 997.6 |
| 20260506014501 | 51 | 37 | 2.6 | 2.6 | 0.00 | 0.00 | 0.00 | 94 | 997.6 |
| 20260506013001 | 51 | 102 | 1.7 | 2.6 | 0.00 | 0.00 | 0.00 | 94 | 997.6 |
| 20260506011501 | 51 | 83 | 2.6 | 2.6 | 0.00 | 0.00 | 0.00 | 94 | 997.9 |
| 20260506010001 | 51 | 88 | 1.7 | 4.3 | 0.00 | 0.00 | 0.00 | 94 | 998.3 |
| 20260506004503 | 51 | 41 | 1.7 | 2.6 | 0.00 | 0.00 | 0.00 | 94 | 997.9 |
| 20260506003002 | 51 | 80 | 0.9 | 2.6 | 0.00 | 0.00 | 0.00 | 95 | 997.9 |
| 20260506001502 | 51 | 39 | 1.7 | 2.6 | 0.00 | 0.00 | 0.00 | 95 | 998.3 |
| 20260506000002 | 51 | 86 | 0.9 | 2.6 | 0.00 | 0.00 | 0.00 | 95 | 998.9 |
| 20260505234501 | 51 | 34 | 3.5 | 3.5 | 0.00 | 0.00 | 0.00 | 95 | 998.9 |
| 20260505233001 | 51 | 31 | 1.7 | 2.6 | 0.00 | 0.00 | 0.00 | 95 | 998.9 |
| 20260505231501 | 51 | 33 | 0.9 | 1.7 | 0.00 | 0.00 | 0.00 | 94 | 998.9 |
| 20260505230000 | 51 | 353 | 0.9 | 1.7 | 0.00 | 0.00 | 0.00 | 93 | 998.9 |
| 20260505224502 | 51 | 74 | 1.7 | 1.7 | 0.00 | 0.00 | 0.00 | 93 | 998.9 |
| 20260505223001 | 51 | 102 | 0.9 | 0.9 | 0.00 | 0.00 | 0.00 | 92 | 998.9 |
| 20260505221501 | 51 | 65 | 0.9 | 0.9 | 0.00 | 0.00 | 0.00 | 91 | 998.9 |
| 20260505220002 | 51 | 92 | 1.7 | 2.6 | 0.00 | 0.00 | 0.00 | 91 | 998.9 |
| 20260505214501 | 51 | 101 | 0.9 | 2.6 | 0.00 | 0.00 | 0.00 | 90 | 998.9 |
| 20260505213001 | 51 | 67 | 1.7 | 1.7 | 0.00 | 0.00 | 0.00 | 91 | 998.9 |
| 20260505211501 | 53 | 20 | 0.9 | 0.9 | 0.00 | 0.00 | 0.00 | 91 | 998.9 |
| 20260505210001 | 53 | 66 | 0.9 | 1.7 | 0.00 | 0.00 | 0.00 | 91 | 999.3 |
| 20260505204502 | 53 | 83 | 0.9 | 1.7 | 0.00 | 0.00 | 0.00 | 90 | 999.3 |
| 20260505203001 | 53 | 52 | 0.9 | 2.6 | 0.00 | 0.00 | 0.00 | 88 | 999.6 |
| 20260505201607 | 53 | 85 | 0.9 | 0.9 | 0.00 | 0.00 | 0.00 | 87 | 999.6 |
| 20260505200003 | 55 | 79 | 1.7 | 2.6 | 0.00 | 0.00 | 0.00 | 84 | 999.6 |
| 20260505194501 | 55 | 95 | 2.6 | 2.6 | 0.00 | 0.00 | 0.00 | 81 | 999.6 |
| 20260505193001 | 55 | 36 | 1.7 | 2.6 | 0.00 | 0.00 | 0.00 | 78 | 999.3 |
| 20260505191501 | 55 | 73 | 0.9 | 0.9 | 0.00 | 0.00 | 0.00 | 77 | 999.6 |
| 20260505190001 | 55 | 94 | 0.9 | 2.6 | 0.00 | 0.00 | 0.00 | 77 | 999.3 |
| 20260505184501 | 57 | 67 | 2.6 | 2.6 | 0.00 | 0.00 | 0.00 | 77 | 999.3 |
| 20260505183002 | 57 | 32 | 0.9 | 0.9 | 0.00 | 0.00 | 0.00 | 77 | 999.3 |
| 20260505181501 | 57 | 96 | 2.6 | 3.5 | 0.00 | 0.00 | 0.00 | 76 | 998.9 |
| 20260505180001 | 57 | 70 | 0.9 | 2.6 | 0.00 | 0.00 | 0.00 | 75 | 998.9 |
| 20260505174501 | 57 | 100 | 1.7 | 2.6 | 0.00 | 0.00 | 0.00 | 73 | 998.9 |
| 20260505173001 | 59 | 103 | 1.7 | 2.6 | 0.00 | 0.00 | 0.00 | 72 | 998.9 |
| 20260505171502 | 59 | 29 | 2.6 | 3.5 | 0.00 | 0.00 | 0.00 | 68 | 998.9 |
| 20260505170001 | 59 | 25 | 1.7 | 2.6 | 0.00 | 0.00 | 0.00 | 67 | 998.9 |
| 20260505164501 | 59 | 29 | 4.3 | 4.3 | 0.00 | 0.00 | 0.00 | 65 | 998.9 |
| 20260505163001 | 60 | 29 | 3.5 | 5.2 | 0.00 | 0.00 | 0.00 | 66 | 998.9 |
| 20260505161503 | 60 | 340 | 4.3 | 6.1 | 0.00 | 0.00 | 0.00 | 66 | 998.9 |
| 20260505153002 | 66 | 10 | 5.2 | 9.6 | 0.00 | 0.00 | 0.00 | 58 | 998.9 |
| 20260505151501 | 66 | 338 | 9.6 | 13.9 | 0.00 | 0.00 | 0.00 | 56 | 998.9 |